Time,TemperatureF,DewpointF,PressureIn,WindDirection,WindDirectionDegrees,WindSpeedMPH,WindSpeedGustMPH,Humidity,HourlyPrecipIn,Conditions,Clouds,dailyrainin,SoftwareType,DateUTC
2013-12-05 00:02:00,46.4,44.6,30.04,NE,44,12.7,-999.9,93,-99.99,,,-99.99,,2013-12-05 05:02:00,
2013-12-05 00:08:00,46.4,44.6,30.04,NE,44,12.7,-999.9,93,-99.99,,,-99.99,,2013-12-05 05:08:00,
2013-12-05 00:14:00,46.4,44.6,30.03,NE,54,10.4,-999.9,93,-99.99,,,-99.99,,2013-12-05 05:14:00,
2013-12-05 00:20:00,46.4,44.6,30.03,NE,54,10.4,-999.9,93,-99.99,,,-99.99,,2013-12-05 05:20:00,
2013-12-05 00:26:00,46.4,44.6,30.03,NE,47,8.1,-999.9,93,-99.99,,,-99.99,,2013-12-05 05:26:00,
2013-12-05 00:32:00,46.4,44.6,30.04,NE,52,9.2,-999.9,93,-99.99,,,-99.99,,2013-12-05 05:32:00,
2013-12-05 00:38:00,46.4,44.6,30.04,NE,52,9.2,-999.9,93,-99.99,,,-99.99,,2013-12-05 05:38:00,
2013-12-05 00:44:00,46.4,44.6,30.04,ENE,58,4.6,-999.9,93,-99.99,,,-99.99,,2013-12-05 05:44:00,
2013-12-05 00:50:00,46.4,44.6,30.04,ENE,58,4.6,-999.9,93,-99.99,,,-99.99,,2013-12-05 05:50:00,
2013-12-05 00:56:00,46.4,44.6,30.03,NE,46,5.8,-999.9,93,-99.99,,,-99.99,,2013-12-05 05:56:00,
2013-12-05 01:02:00,46.4,44.6,30.03,NE,44,9.2,-999.9,93,-99.99,,,-99.99,,2013-12-05 06:02:00,
2013-12-05 01:08:00,46.4,44.6,30.03,NE,44,9.2,-999.9,93,-99.99,,,-99.99,,2013-12-05 06:08:00,
2013-12-05 01:42:00,46.4,44.6,30.03,NE,43,15.0,-999.9,93,-99.99,,,-99.99,,2013-12-05 06:42:00,
2013-12-05 01:48:00,46.4,44.6,30.03,NE,43,15.0,-999.9,93,-99.99,,,-99.99,,2013-12-05 06:48:00,
2013-12-05 01:54:00,46.4,44.6,30.03,NNE,32,8.1,-999.9,93,-99.99,,,-99.99,,2013-12-05 06:54:00,
2013-12-05 02:00:00,46.4,44.6,30.03,NNE,32,8.1,-999.9,93,-99.99,,,-99.99,,2013-12-05 07:00:00,
2013-12-05 02:06:00,46.4,44.6,30.03,NE,37,9.2,-999.9,93,-99.99,,,-99.99,,2013-12-05 07:06:00,
2013-12-05 02:12:00,46.4,44.6,30.03,NE,44,8.1,-999.9,93,-99.99,,,-99.99,,2013-12-05 07:12:00,
2013-12-05 02:18:00,46.4,44.6,30.03,NE,44,8.1,-999.9,93,-99.99,,,-99.99,,2013-12-05 07:18:00,
2013-12-05 02:24:00,48.2,46.4,30.04,NNE,14,5.8,-999.9,93,-99.99,,,-99.99,,2013-12-05 07:24:00,
2013-12-05 02:30:00,48.2,46.4,30.04,NNE,14,5.8,-999.9,93,-99.99,,,-99.99,,2013-12-05 07:30:00,
2013-12-05 02:36:00,48.2,46.4,30.04,NE,38,9.2,-999.9,93,-99.99,,,-99.99,,2013-12-05 07:36:00,
2013-12-05 02:42:00,46.4,44.6,30.03,NE,39,11.5,-999.9,93,-99.99,,,-99.99,,2013-12-05 07:42:00,
2013-12-05 02:48:00,46.4,44.6,30.03,NE,39,11.5,-999.9,93,-99.99,,,-99.99,,2013-12-05 07:48:00,
2013-12-05 02:54:00,48.2,46.4,30.03,NE,53,1.2,-999.9,93,-99.99,,,-99.99,,2013-12-05 07:54:00,
2013-12-05 03:00:00,48.2,46.4,30.03,NE,53,1.2,-999.9,93,-99.99,,,-99.99,,2013-12-05 08:00:00,
2013-12-05 03:06:00,46.4,44.6,30.03,NE,50,4.6,-999.9,93,-99.99,,,-99.99,,2013-12-05 08:06:00,
2013-12-05 03:12:00,46.4,44.6,30.03,NE,42,9.2,-999.9,93,-99.99,,,-99.99,,2013-12-05 08:12:00,
2013-12-05 03:18:00,46.4,44.6,30.03,NE,42,9.2,-999.9,93,-99.99,,,-99.99,,2013-12-05 08:18:00,
2013-12-05 03:24:00,46.4,46.4,30.03,NE,36,10.4,-999.9,100,-99.99,,,-99.99,,2013-12-05 08:24:00,
2013-12-05 03:30:00,46.4,46.4,30.03,NE,36,10.4,-999.9,100,-99.99,,,-99.99,,2013-12-05 08:30:00,
2013-12-05 03:36:00,46.4,46.4,30.03,NE,44,11.5,-999.9,100,-99.99,,,-99.99,,2013-12-05 08:36:00,
2013-12-05 03:42:00,46.4,46.4,30.03,NE,45,8.1,-999.9,100,-99.99,,,-99.99,,2013-12-05 08:42:00,
2013-12-05 03:48:00,46.4,46.4,30.03,NE,45,8.1,-999.9,100,-99.99,,,-99.99,,2013-12-05 08:48:00,
2013-12-05 03:54:00,46.4,46.4,30.03,NE,42,8.1,-999.9,100,-99.99,,,-99.99,,2013-12-05 08:54:00,
2013-12-05 04:00:00,46.4,46.4,30.03,NE,42,8.1,-999.9,100,-99.99,,,-99.99,,2013-12-05 09:00:00,
2013-12-05 04:06:00,46.4,46.4,30.03,ENE,60,6.9,-999.9,100,-99.99,,,-99.99,,2013-12-05 09:06:00,
2013-12-05 04:12:00,46.4,46.4,30.02,NE,36,11.5,-999.9,100,-99.99,,,-99.99,,2013-12-05 09:12:00,
2013-12-05 04:18:00,46.4,46.4,30.02,NE,36,11.5,-999.9,100,-99.99,,,-99.99,,2013-12-05 09:18:00,
2013-12-05 04:24:00,46.4,46.4,30.02,NE,45,6.9,-999.9,100,-99.99,,,-99.99,,2013-12-05 09:24:00,
2013-12-05 04:30:00,46.4,46.4,30.02,NE,45,6.9,-999.9,100,-99.99,,,-99.99,,2013-12-05 09:30:00,
2013-12-05 04:36:00,46.4,46.4,30.02,NNE,28,5.8,-999.9,100,-99.99,,,-99.99,,2013-12-05 09:36:00,
2013-12-05 04:42:00,46.4,46.4,30.02,NE,52,8.1,-999.9,100,-99.99,,,-99.99,,2013-12-05 09:42:00,
2013-12-05 04:48:00,46.4,46.4,30.02,NE,52,8.1,-999.9,100,-99.99,,,-99.99,,2013-12-05 09:48:00,
2013-12-05 04:54:00,46.4,46.4,30.01,ENE,63,5.8,-999.9,100,-99.99,,,-99.99,,2013-12-05 09:54:00,
2013-12-05 05:00:00,46.4,46.4,30.01,ENE,63,5.8,-999.9,100,-99.99,,,-99.99,,2013-12-05 10:00:00,
2013-12-05 05:06:00,46.4,46.4,30.01,NE,45,9.2,-999.9,100,-99.99,,,-99.99,,2013-12-05 10:06:00,
2013-12-05 05:12:00,46.4,46.4,30.01,NE,43,9.2,-999.9,100,-99.99,,,-99.99,,2013-12-05 10:12:00,
2013-12-05 05:18:00,46.4,46.4,30.01,NE,43,9.2,-999.9,100,-99.99,,,-99.99,,2013-12-05 10:18:00,
2013-12-05 05:24:00,46.4,46.4,30.01,NE,43,8.1,-999.9,100,-99.99,,,-99.99,,2013-12-05 10:24:00,
2013-12-05 05:30:00,46.4,46.4,30.01,NE,43,8.1,-999.9,100,-99.99,,,-99.99,,2013-12-05 10:30:00,
2013-12-05 05:36:00,46.4,46.4,30.01,ENE,57,9.2,-999.9,100,-99.99,,,-99.99,,2013-12-05 10:36:00,
2013-12-05 05:42:00,46.4,46.4,30.01,NE,38,11.5,-999.9,100,-99.99,,,-99.99,,2013-12-05 10:42:00,
2013-12-05 05:48:00,46.4,46.4,30.01,NE,38,11.5,-999.9,100,-99.99,,,-99.99,,2013-12-05 10:48:00,
2013-12-05 05:54:00,46.4,46.4,30.01,NE,52,11.5,-999.9,100,-99.99,,,-99.99,,2013-12-05 10:54:00,
2013-12-05 06:00:00,46.4,46.4,30.01,NE,52,11.5,-999.9,100,-99.99,,,-99.99,,2013-12-05 11:00:00,
2013-12-05 06:06:00,46.4,46.4,30.01,NE,38,10.4,-999.9,100,-99.99,,,-99.99,,2013-12-05 11:06:00,
2013-12-05 06:12:00,46.4,46.4,30.00,NNE,31,9.2,-999.9,100,-99.99,,,-99.99,,2013-12-05 11:12:00,
2013-12-05 06:18:00,46.4,46.4,30.00,NNE,31,9.2,-999.9,100,-99.99,,,-99.99,,2013-12-05 11:18:00,
2013-12-05 06:24:00,46.4,46.4,30.00,NE,45,9.2,-999.9,100,-99.99,,,-99.99,,2013-12-05 11:24:00,
2013-12-05 06:30:00,46.4,46.4,30.00,NE,45,9.2,-999.9,100,-99.99,,,-99.99,,2013-12-05 11:30:00,
2013-12-05 06:36:00,46.4,46.4,29.99,NE,38,9.2,-999.9,100,-99.99,,,-99.99,,2013-12-05 11:36:00,
2013-12-05 06:42:00,46.4,46.4,29.99,NE,40,10.4,-999.9,100,-99.99,,,-99.99,,2013-12-05 11:42:00,
2013-12-05 06:48:00,46.4,46.4,29.99,NE,40,10.4,-999.9,100,-99.99,,,-99.99,,2013-12-05 11:48:00,
2013-12-05 06:54:00,48.2,48.2,29.98,NE,51,6.9,-999.9,100,-99.99,,,-99.99,,2013-12-05 11:54:00,
2013-12-05 07:00:00,48.2,48.2,29.98,NE,51,6.9,-999.9,100,-99.99,,,-99.99,,2013-12-05 12:00:00,
2013-12-05 07:06:00,48.2,48.2,29.99,NE,42,8.1,-999.9,100,-99.99,,,-99.99,,2013-12-05 12:06:00,
2013-12-05 07:12:00,48.2,48.2,30.00,NE,43,3.5,-999.9,100,-99.99,,,-99.99,,2013-12-05 12:12:00,
2013-12-05 07:18:00,48.2,48.2,30.00,NE,43,3.5,-999.9,100,-99.99,,,-99.99,,2013-12-05 12:18:00,
2013-12-05 07:24:00,48.2,48.2,30.00,NNE,25,4.6,-999.9,100,-99.99,,,-99.99,,2013-12-05 12:24:00,
2013-12-05 07:30:00,48.2,48.2,30.00,NNE,25,4.6,-999.9,100,-99.99,,,-99.99,,2013-12-05 12:30:00,
2013-12-05 07:36:00,48.2,48.2,30.00,ENE,58,6.9,-999.9,100,-99.99,,,-99.99,,2013-12-05 12:36:00,
2013-12-05 07:42:00,48.2,48.2,30.01,NE,37,6.9,-999.9,100,-99.99,,,-99.99,,2013-12-05 12:42:00,
2013-12-05 07:48:00,48.2,48.2,30.01,NE,37,6.9,-999.9,100,-99.99,,,-99.99,,2013-12-05 12:48:00,
2013-12-05 07:54:00,48.2,48.2,30.01,NE,55,5.8,-999.9,100,-99.99,,,-99.99,,2013-12-05 12:54:00,
2013-12-05 08:00:00,48.2,48.2,30.01,NE,55,5.8,-999.9,100,-99.99,,,-99.99,,2013-12-05 13:00:00,
2013-12-05 08:06:00,48.2,48.2,30.01,NE,55,3.5,-999.9,100,-99.99,,,-99.99,,2013-12-05 13:06:00,
2013-12-05 08:12:00,48.2,48.2,30.01,NE,45,5.8,-999.9,100,-99.99,,,-99.99,,2013-12-05 13:12:00,
2013-12-05 08:18:00,48.2,48.2,30.01,NE,45,5.8,-999.9,100,-99.99,,,-99.99,,2013-12-05 13:18:00,
2013-12-05 08:24:00,48.2,48.2,30.00,NE,45,8.1,-999.9,100,-99.99,,,-99.99,,2013-12-05 13:24:00,
2013-12-05 08:30:00,48.2,48.2,30.00,NE,45,8.1,-999.9,100,-99.99,,,-99.99,,2013-12-05 13:30:00,
2013-12-05 08:36:00,48.2,48.2,30.00,NE,37,6.9,-999.9,100,-99.99,,,-99.99,,2013-12-05 13:36:00,
2013-12-05 08:42:00,48.2,48.2,29.99,NE,47,5.8,-999.9,100,-99.99,,,-99.99,,2013-12-05 13:42:00,
2013-12-05 08:48:00,48.2,48.2,29.99,NE,47,5.8,-999.9,100,-99.99,,,-99.99,,2013-12-05 13:48:00,
2013-12-05 08:54:00,48.2,48.2,29.99,NE,43,3.5,-999.9,100,-99.99,,,-99.99,,2013-12-05 13:54:00,
2013-12-05 09:00:00,48.2,48.2,29.99,NE,43,3.5,-999.9,100,-99.99,,,-99.99,,2013-12-05 14:00:00,
2013-12-05 09:06:00,48.2,48.2,30.00,NE,49,5.8,-999.9,100,-99.99,,,-99.99,,2013-12-05 14:06:00,
2013-12-05 09:12:00,48.2,48.2,30.00,ENE,63,1.2,-999.9,100,-99.99,,,-99.99,,2013-12-05 14:12:00,
2013-12-05 09:18:00,48.2,48.2,30.00,ENE,63,1.2,-999.9,100,-99.99,,,-99.99,,2013-12-05 14:18:00,
2013-12-05 09:24:00,48.2,48.2,30.00,East,82,1.2,-999.9,100,-99.99,,,-99.99,,2013-12-05 14:24:00,
2013-12-05 09:30:00,48.2,48.2,30.00,East,82,1.2,-999.9,100,-99.99,,,-99.99,,2013-12-05 14:30:00,
2013-12-05 09:36:00,48.2,48.2,29.99,ENE,75,0.0,-999.9,100,-99.99,,,-99.99,,2013-12-05 14:36:00,
2013-12-05 09:42:00,50.0,50.0,29.99,NE,48,2.3,-999.9,100,-99.99,,,-99.99,,2013-12-05 14:42:00,
2013-12-05 09:48:00,50.0,50.0,29.99,NE,48,2.3,-999.9,100,-99.99,,,-99.99,,2013-12-05 14:48:00,
2013-12-05 09:54:00,50.0,50.0,30.00,NNE,26,3.5,-999.9,100,-99.99,,,-99.99,,2013-12-05 14:54:00,
2013-12-05 10:00:00,50.0,50.0,30.00,NNE,26,3.5,-999.9,100,-99.99,,,-99.99,,2013-12-05 15:00:00,
2013-12-05 10:06:00,50.0,50.0,29.99,NNE,32,3.5,-999.9,100,-99.99,,,-99.99,,2013-12-05 15:06:00,
2013-12-05 10:12:00,50.0,50.0,29.99,NE,55,1.2,-999.9,100,-99.99,,,-99.99,,2013-12-05 15:12:00,
2013-12-05 10:18:00,50.0,50.0,29.99,NE,55,1.2,-999.9,100,-99.99,,,-99.99,,2013-12-05 15:18:00,
2013-12-05 10:24:00,50.0,50.0,29.99,NE,36,5.8,-999.9,100,-99.99,,,-99.99,,2013-12-05 15:24:00,
2013-12-05 10:30:00,50.0,50.0,29.99,NE,36,5.8,-999.9,100,-99.99,,,-99.99,,2013-12-05 15:30:00,
2013-12-05 10:36:00,50.0,50.0,29.99,NE,49,0.0,-999.9,100,-99.99,,,-99.99,,2013-12-05 15:36:00,
2013-12-05 10:42:00,51.8,51.8,29.98,ENE,70,0.0,-999.9,100,-99.99,,,-99.99,,2013-12-05 15:42:00,
2013-12-05 10:48:00,51.8,51.8,29.98,ENE,70,0.0,-999.9,100,-99.99,,,-99.99,,2013-12-05 15:48:00,
2013-12-05 10:54:00,51.8,51.8,29.98,NE,45,3.5,-999.9,100,-99.99,,,-99.99,,2013-12-05 15:54:00,
2013-12-05 11:00:00,51.8,51.8,29.98,NE,45,3.5,-999.9,100,-99.99,,,-99.99,,2013-12-05 16:00:00,
2013-12-05 11:06:00,51.8,51.8,29.98,ENE,66,0.0,-999.9,100,-99.99,,,-99.99,,2013-12-05 16:06:00,
2013-12-05 11:12:00,51.8,51.8,29.97,North,0,0.0,-999.9,100,-99.99,,,-99.99,,2013-12-05 16:12:00,
2013-12-05 11:18:00,51.8,51.8,29.97,North,0,0.0,-999.9,100,-99.99,,,-99.99,,2013-12-05 16:18:00,
2013-12-05 11:24:00,51.8,51.8,29.96,North,0,0.0,-999.9,100,-99.99,,,-99.99,,2013-12-05 16:24:00,
2013-12-05 11:30:00,51.8,51.8,29.96,North,0,0.0,-999.9,100,-99.99,,,-99.99,,2013-12-05 16:30:00,
2013-12-05 11:36:00,51.8,51.8,29.96,NE,38,2.3,-999.9,100,-99.99,,,-99.99,,2013-12-05 16:36:00,
2013-12-05 11:42:00,51.8,51.8,29.95,North,0,0.0,-999.9,100,-99.99,,,-99.99,,2013-12-05 16:42:00,
2013-12-05 11:48:00,51.8,51.8,29.95,North,0,0.0,-999.9,100,-99.99,,,-99.99,,2013-12-05 16:48:00,
2013-12-05 11:54:00,51.8,51.8,29.95,East,85,0.0,-999.9,100,-99.99,,,-99.99,,2013-12-05 16:54:00,
2013-12-05 12:00:00,51.8,51.8,29.95,East,85,0.0,-999.9,100,-99.99,,,-99.99,,2013-12-05 17:00:00,
2013-12-05 12:06:00,53.6,53.6,29.94,North,0,0.0,-999.9,100,-99.99,,,-99.99,,2013-12-05 17:06:00,
2013-12-05 12:12:00,53.6,53.6,29.93,North,355,2.3,-999.9,100,-99.99,,,-99.99,,2013-12-05 17:12:00,
2013-12-05 12:18:00,53.6,53.6,29.93,North,355,2.3,-999.9,100,-99.99,,,-99.99,,2013-12-05 17:18:00,
2013-12-05 12:24:00,53.6,53.6,29.92,North,0,0.0,-999.9,100,-99.99,,,-99.99,,2013-12-05 17:24:00,
2013-12-05 12:30:00,53.6,53.6,29.92,North,0,0.0,-999.9,100,-99.99,,,-99.99,,2013-12-05 17:30:00,
2013-12-05 12:36:00,53.6,53.6,29.91,ENE,73,0.0,-999.9,100,-99.99,,,-99.99,,2013-12-05 17:36:00,
2013-12-05 12:42:00,53.6,53.6,29.91,North,0,0.0,-999.9,100,-99.99,,,-99.99,,2013-12-05 17:42:00,
2013-12-05 12:48:00,53.6,53.6,29.91,North,0,0.0,-999.9,100,-99.99,,,-99.99,,2013-12-05 17:48:00,
2013-12-05 12:54:00,55.4,55.4,29.91,North,0,0.0,-999.9,100,-99.99,,,-99.99,,2013-12-05 17:54:00,
2013-12-05 13:00:00,55.4,55.4,29.91,North,0,0.0,-999.9,100,-99.99,,,-99.99,,2013-12-05 18:00:00,
2013-12-05 13:06:00,55.4,55.4,29.91,WSW,240,0.0,-999.9,100,-99.99,,,-99.99,,2013-12-05 18:06:00,
2013-12-05 13:12:00,55.4,55.4,29.90,SW,214,2.3,-999.9,100,-99.99,,,-99.99,,2013-12-05 18:12:00,
2013-12-05 13:18:00,55.4,55.4,29.90,SW,214,2.3,-999.9,100,-99.99,,,-99.99,,2013-12-05 18:18:00,
2013-12-05 13:24:00,55.4,55.4,29.90,SW,217,4.6,-999.9,100,-99.99,,,-99.99,,2013-12-05 18:24:00,
2013-12-05 13:30:00,55.4,55.4,29.90,SW,217,4.6,-999.9,100,-99.99,,,-99.99,,2013-12-05 18:30:00,
2013-12-05 13:36:00,57.2,55.4,29.90,SSW,193,4.6,-999.9,94,-99.99,,,-99.99,,2013-12-05 18:36:00,
2013-12-05 13:42:00,57.2,55.4,29.89,South,182,11.5,-999.9,94,-99.99,,,-99.99,,2013-12-05 18:42:00,
2013-12-05 13:48:00,57.2,55.4,29.89,South,182,11.5,-999.9,94,-99.99,,,-99.99,,2013-12-05 18:48:00,
2013-12-05 13:54:00,57.2,55.4,29.90,SSW,195,12.7,-999.9,94,-99.99,,,-99.99,,2013-12-05 18:54:00,
2013-12-05 14:00:00,57.2,55.4,29.90,SSW,195,12.7,-999.9,94,-99.99,,,-99.99,,2013-12-05 19:00:00,
2013-12-05 14:06:00,57.2,53.6,29.89,South,189,11.5,-999.9,88,-99.99,,,-99.99,,2013-12-05 19:06:00,
2013-12-05 14:12:00,57.2,55.4,29.89,South,179,10.4,-999.9,94,-99.99,,,-99.99,,2013-12-05 19:12:00,
2013-12-05 14:18:00,57.2,55.4,29.89,South,179,10.4,-999.9,94,-99.99,,,-99.99,,2013-12-05 19:18:00,
2013-12-05 14:24:00,57.2,55.4,29.89,South,181,11.5,-999.9,94,-99.99,,,-99.99,,2013-12-05 19:24:00,
2013-12-05 14:30:00,57.2,55.4,29.89,South,181,11.5,-999.9,94,-99.99,,,-99.99,,2013-12-05 19:30:00,
2013-12-05 14:36:00,57.2,55.4,29.88,South,182,12.7,-999.9,94,-99.99,,,-99.99,,2013-12-05 19:36:00,
2013-12-05 14:42:00,57.2,55.4,29.89,South,186,9.2,-999.9,94,-99.99,,,-99.99,,2013-12-05 19:42:00,
2013-12-05 14:48:00,57.2,55.4,29.89,South,186,9.2,-999.9,94,-99.99,,,-99.99,,2013-12-05 19:48:00,
2013-12-05 14:54:00,57.2,55.4,29.89,South,182,4.6,-999.9,94,-99.99,,,-99.99,,2013-12-05 19:54:00,
2013-12-05 15:00:00,57.2,55.4,29.89,South,182,4.6,-999.9,94,-99.99,,,-99.99,,2013-12-05 20:00:00,
2013-12-05 15:06:00,57.2,55.4,29.89,SSW,211,2.3,-999.9,94,-99.99,,,-99.99,,2013-12-05 20:06:00,
2013-12-05 15:12:00,57.2,55.4,29.89,South,190,0.0,-999.9,94,-99.99,,,-99.99,,2013-12-05 20:12:00,
2013-12-05 15:18:00,57.2,55.4,29.89,South,190,0.0,-999.9,94,-99.99,,,-99.99,,2013-12-05 20:18:00,
2013-12-05 15:24:00,57.2,55.4,29.90,SW,217,5.8,-999.9,94,-99.99,,,-99.99,,2013-12-05 20:24:00,
2013-12-05 15:30:00,57.2,55.4,29.90,SW,217,5.8,-999.9,94,-99.99,,,-99.99,,2013-12-05 20:30:00,
2013-12-05 15:36:00,57.2,55.4,29.90,SW,216,2.3,-999.9,94,-99.99,,,-99.99,,2013-12-05 20:36:00,
2013-12-05 15:42:00,55.4,53.6,29.89,SW,228,4.6,-999.9,94,-99.99,,,-99.99,,2013-12-05 20:42:00,
2013-12-05 15:48:00,55.4,53.6,29.89,SW,228,4.6,-999.9,94,-99.99,,,-99.99,,2013-12-05 20:48:00,
2013-12-05 15:54:00,55.4,53.6,29.89,South,190,2.3,-999.9,94,-99.99,,,-99.99,,2013-12-05 20:54:00,
2013-12-05 16:00:00,55.4,53.6,29.89,South,190,2.3,-999.9,94,-99.99,,,-99.99,,2013-12-05 21:00:00,
2013-12-05 16:06:00,55.4,53.6,29.89,South,188,8.1,-999.9,94,-99.99,,,-99.99,,2013-12-05 21:06:00,
2013-12-05 16:12:00,57.2,55.4,29.89,SSE,157,2.3,-999.9,94,-99.99,,,-99.99,,2013-12-05 21:12:00,
2013-12-05 16:18:00,57.2,55.4,29.89,SSE,157,2.3,-999.9,94,-99.99,,,-99.99,,2013-12-05 21:18:00,
2013-12-05 16:24:00,55.4,53.6,29.89,SE,127,2.3,-999.9,94,-99.99,,,-99.99,,2013-12-05 21:24:00,
2013-12-05 16:30:00,55.4,53.6,29.89,SE,127,2.3,-999.9,94,-99.99,,,-99.99,,2013-12-05 21:30:00,
2013-12-05 16:36:00,55.4,53.6,29.89,SSW,195,6.9,-999.9,94,-99.99,,,-99.99,,2013-12-05 21:36:00,
2013-12-05 16:42:00,55.4,53.6,29.89,SSW,204,5.8,-999.9,94,-99.99,,,-99.99,,2013-12-05 21:42:00,
2013-12-05 16:48:00,55.4,53.6,29.89,SSW,204,5.8,-999.9,94,-99.99,,,-99.99,,2013-12-05 21:48:00,
2013-12-05 16:54:00,55.4,53.6,29.89,SSW,204,5.8,-999.9,94,-99.99,,,-99.99,,2013-12-05 21:54:00,
2013-12-05 17:00:00,55.4,53.6,29.89,SSW,204,5.8,-999.9,94,-99.99,,,-99.99,,2013-12-05 22:00:00,
2013-12-05 17:06:00,55.4,53.6,29.89,SW,229,8.1,-999.9,94,-99.99,,,-99.99,,2013-12-05 22:06:00,
2013-12-05 17:12:00,55.4,53.6,29.89,South,179,3.5,-999.9,94,-99.99,,,-99.99,,2013-12-05 22:12:00,
2013-12-05 17:18:00,55.4,53.6,29.89,South,179,3.5,-999.9,94,-99.99,,,-99.99,,2013-12-05 22:18:00,
2013-12-05 17:24:00,55.4,53.6,29.90,South,183,2.3,-999.9,94,-99.99,,,-99.99,,2013-12-05 22:24:00,
2013-12-05 17:30:00,55.4,53.6,29.90,South,183,2.3,-999.9,94,-99.99,,,-99.99,,2013-12-05 22:30:00,
2013-12-05 17:36:00,55.4,53.6,29.90,SW,215,2.3,-999.9,94,-99.99,,,-99.99,,2013-12-05 22:36:00,
2013-12-05 17:42:00,55.4,53.6,29.91,West,263,3.5,-999.9,94,-99.99,,,-99.99,,2013-12-05 22:42:00,
2013-12-05 17:48:00,55.4,53.6,29.91,West,263,3.5,-999.9,94,-99.99,,,-99.99,,2013-12-05 22:48:00,
2013-12-05 17:54:00,55.4,53.6,29.91,SSW,195,2.3,-999.9,94,-99.99,,,-99.99,,2013-12-05 22:54:00,
2013-12-05 18:00:00,55.4,53.6,29.91,SSW,195,2.3,-999.9,94,-99.99,,,-99.99,,2013-12-05 23:00:00,
2013-12-05 18:06:00,55.4,53.6,29.90,North,0,0.0,-999.9,94,-99.99,,,-99.99,,2013-12-05 23:06:00,
2013-12-05 18:12:00,55.4,53.6,29.91,North,0,0.0,-999.9,94,-99.99,,,-99.99,,2013-12-05 23:12:00,
2013-12-05 18:18:00,55.4,53.6,29.91,North,0,0.0,-999.9,94,-99.99,,,-99.99,,2013-12-05 23:18:00,
2013-12-05 18:24:00,55.4,53.6,29.91,North,0,0.0,-999.9,94,-99.99,,,-99.99,,2013-12-05 23:24:00,
2013-12-05 18:30:00,55.4,53.6,29.91,North,0,0.0,-999.9,94,-99.99,,,-99.99,,2013-12-05 23:30:00,
2013-12-05 18:36:00,55.4,53.6,29.91,North,0,0.0,-999.9,94,-99.99,,,-99.99,,2013-12-05 23:36:00,
2013-12-05 19:32:00,57.2,55.4,29.88,SSE,156,0.0,-999.9,94,-99.99,,,-99.99,,2013-12-06 00:32:00,
2013-12-05 19:38:00,57.2,55.4,29.88,SSE,156,0.0,-999.9,94,-99.99,,,-99.99,,2013-12-06 00:38:00,
2013-12-05 19:52:00,57.2,55.4,29.88,North,0,0.0,-999.9,94,-99.99,,,-99.99,,2013-12-06 00:52:00,
2013-12-05 19:58:00,57.2,55.4,29.88,North,0,0.0,-999.9,94,-99.99,,,-99.99,,2013-12-06 00:58:00,
2013-12-05 20:04:00,57.2,55.4,29.89,North,0,0.0,-999.9,94,-99.99,,,-99.99,,2013-12-06 01:04:00,
2013-12-05 20:10:00,57.2,55.4,29.89,North,0,0.0,-999.9,94,-99.99,,,-99.99,,2013-12-06 01:10:00,
2013-12-05 20:16:00,57.2,55.4,29.89,SSW,201,2.3,-999.9,94,-99.99,,,-99.99,,2013-12-06 01:16:00,
2013-12-05 20:22:00,57.2,55.4,29.89,South,186,4.6,-999.9,94,-99.99,,,-99.99,,2013-12-06 01:22:00,
2013-12-05 20:28:00,57.2,55.4,29.89,South,186,4.6,-999.9,94,-99.99,,,-99.99,,2013-12-06 01:28:00,
2013-12-05 20:34:00,57.2,55.4,29.89,South,177,5.8,-999.9,94,-99.99,,,-99.99,,2013-12-06 01:34:00,
2013-12-05 20:40:00,57.2,55.4,29.89,South,177,5.8,-999.9,94,-99.99,,,-99.99,,2013-12-06 01:40:00,
2013-12-05 20:46:00,57.2,55.4,29.88,South,181,11.5,-999.9,94,-99.99,,,-99.99,,2013-12-06 01:46:00,
2013-12-05 20:52:00,57.2,55.4,29.89,SSW,193,11.5,-999.9,94,-99.99,,,-99.99,,2013-12-06 01:52:00,
2013-12-05 20:58:00,57.2,55.4,29.89,SSW,193,11.5,-999.9,94,-99.99,,,-99.99,,2013-12-06 01:58:00,
2013-12-05 21:04:00,57.2,55.4,29.89,South,178,9.2,-999.9,94,-99.99,,,-99.99,,2013-12-06 02:04:00,
2013-12-05 21:10:00,57.2,55.4,29.89,South,178,9.2,-999.9,94,-99.99,,,-99.99,,2013-12-06 02:10:00,
2013-12-05 21:16:00,55.4,53.6,29.88,South,179,8.1,-999.9,94,-99.99,,,-99.99,,2013-12-06 02:16:00,
2013-12-05 21:22:00,55.4,55.4,29.88,SSW,196,5.8,-999.9,100,-99.99,,,-99.99,,2013-12-06 02:22:00,
2013-12-05 21:28:00,55.4,55.4,29.88,SSW,196,5.8,-999.9,100,-99.99,,,-99.99,,2013-12-06 02:28:00,
2013-12-05 21:34:00,55.4,55.4,29.88,North,0,0.0,-999.9,100,-99.99,,,-99.99,,2013-12-06 02:34:00,
2013-12-05 21:40:00,55.4,55.4,29.88,North,0,0.0,-999.9,100,-99.99,,,-99.99,,2013-12-06 02:40:00,
2013-12-05 21:46:00,55.4,55.4,29.88,South,177,6.9,-999.9,100,-99.99,,,-99.99,,2013-12-06 02:46:00,
2013-12-05 21:52:00,55.4,55.4,29.87,South,189,5.8,-999.9,100,-99.99,,,-99.99,,2013-12-06 02:52:00,
2013-12-05 21:58:00,55.4,55.4,29.87,South,189,5.8,-999.9,100,-99.99,,,-99.99,,2013-12-06 02:58:00,
2013-12-05 22:04:00,53.6,53.6,29.87,SSW,204,6.9,-999.9,100,-99.99,,,-99.99,,2013-12-06 03:04:00,
2013-12-05 22:10:00,53.6,53.6,29.87,SSW,204,6.9,-999.9,100,-99.99,,,-99.99,,2013-12-06 03:10:00,
2013-12-05 22:16:00,53.6,53.6,29.86,South,186,9.2,-999.9,100,-99.99,,,-99.99,,2013-12-06 03:16:00,
2013-12-05 22:22:00,53.6,53.6,29.87,SSW,201,3.5,-999.9,100,-99.99,,,-99.99,,2013-12-06 03:22:00,
2013-12-05 22:28:00,53.6,53.6,29.87,SSW,201,3.5,-999.9,100,-99.99,,,-99.99,,2013-12-06 03:28:00,
2013-12-05 22:34:00,53.6,53.6,29.86,SSE,167,1.2,-999.9,100,-99.99,,,-99.99,,2013-12-06 03:34:00,
2013-12-05 22:40:00,53.6,53.6,29.86,SSE,167,1.2,-999.9,100,-99.99,,,-99.99,,2013-12-06 03:40:00,
2013-12-05 22:46:00,53.6,53.6,29.86,SSW,206,0.0,-999.9,100,-99.99,,,-99.99,,2013-12-06 03:46:00,
2013-12-05 22:52:00,53.6,53.6,29.86,South,181,3.5,-999.9,100,-99.99,,,-99.99,,2013-12-06 03:52:00,
2013-12-05 22:58:00,53.6,53.6,29.86,South,181,3.5,-999.9,100,-99.99,,,-99.99,,2013-12-06 03:58:00,
2013-12-05 23:04:00,53.6,53.6,29.86,SSW,212,6.9,-999.9,100,-99.99,,,-99.99,,2013-12-06 04:04:00,
2013-12-05 23:10:00,53.6,53.6,29.86,SSW,203,5.8,-999.9,100,-99.99,,,-99.99,,2013-12-06 04:10:00,
2013-12-05 23:16:00,53.6,53.6,29.86,SSW,203,5.8,-999.9,100,-99.99,,,-99.99,,2013-12-06 04:16:00,
2013-12-05 23:22:00,53.6,53.6,29.86,South,191,6.9,-999.9,100,-99.99,,,-99.99,,2013-12-06 04:22:00,
2013-12-05 23:28:00,53.6,53.6,29.86,South,191,6.9,-999.9,100,-99.99,,,-99.99,,2013-12-06 04:28:00,
2013-12-05 23:34:00,53.6,53.6,29.85,SSW,201,8.1,-999.9,100,-99.99,,,-99.99,,2013-12-06 04:34:00,
2013-12-05 23:40:00,53.6,53.6,29.85,SSW,201,8.1,-999.9,100,-99.99,,,-99.99,,2013-12-06 04:40:00,
2013-12-05 23:46:00,53.6,53.6,29.85,SSW,208,4.6,-999.9,100,-99.99,,,-99.99,,2013-12-06 04:46:00,
2013-12-05 23:52:00,53.6,53.6,29.85,SSW,198,6.9,-999.9,100,-99.99,,,-99.99,,2013-12-06 04:52:00,
2013-12-05 23:58:00,53.6,53.6,29.85,SSW,198,6.9,-999.9,100,-99.99,,,-99.99,,2013-12-06 04:58:00,